DW8084 Weather Reports


Display with metric or nautical units.
time (UTC)temp
F
wind
direction
speed
MPH
gust
MPH
rain 1hr
in
rain 24hr
in
rain mn
in
humidity
%
barometer
mb
20260508004203 50 95 1.0 2.0 0.00 0.00 0.00 75
20260508003203 50 107 0.0 2.0 0.00 0.00 0.00 75
20260508002204 50 110 2.0 5.0 0.00 0.00 0.00 74
20260508001417 50 108 1.0 2.0 0.00 0.00 0.00 75
20260508000205 51 106 1.0 3.0 0.00 0.00 0.00 74
20260507235414 51 103 2.0 6.0 0.00 0.00 0.00 73
20260507234205 51 109 1.0 5.0 0.00 0.00 0.00 73
20260507233416 51 109 1.0 3.0 0.00 0.00 0.00 73
20260507232206 51 105 1.0 5.0 0.00 0.00 0.00 74
20260507231205 50 113 1.0 3.0 0.00 0.00 0.00 77
20260507230205 50 136 0.0 1.0 0.00 0.00 0.00 78
20260507225204 51 137 0.0 1.0 0.00 0.00 0.00 78
20260507224203 51 109 0.0 1.0 0.00 0.00 0.00 78
20260507223204 51 111 0.0 1.0 0.00 0.00 0.00 78
20260507222417 52 124 0.0 1.0 0.00 0.00 0.00 77
20260507221204 52 119 0.0 1.0 0.00 0.00 0.00 77
20260507220203 52 160 0.0 1.0 0.00 0.00 0.00 77
20260507215204 52 180 1.0 3.0 0.00 0.00 0.00 76
20260507214206 52 174 1.0 2.0 0.00 0.00 0.00 75
20260507213204 53 152 0.0 1.0 0.00 0.00 0.00 76
20260507212204 53 172 0.0 1.0 0.00 0.00 0.00 76
20260507211203 52 174 1.0 2.0 0.00 0.00 0.00 76
20260507210203 52 149 0.0 2.0 0.00 0.00 0.00 78
20260507205203 52 128 1.0 3.0 0.00 0.00 0.00 79
20260507204203 52 118 0.0 3.0 0.00 0.00 0.00 78
20260507203203 52 122 1.0 2.0 0.00 0.00 0.00 78
20260507202414 52 116 0.0 2.0 0.00 0.00 0.00 79
20260507201203 52 112 0.0 1.0 0.00 0.00 0.00 79
20260507200204 52 107 0.0 1.0 0.00 0.00 0.00 80
20260507195203 52 98 0.0 1.0 0.00 0.00 0.00 80
20260507194203 52 88 0.0 2.0 0.00 0.00 0.00 80
20260507193203 53 72 1.0 2.0 0.00 0.00 0.00 80
20260507192203 53 51 0.0 1.0 0.00 0.00 0.00 80
20260507191205 53 92 0.0 1.0 0.00 0.00 0.00 80
20260507190205 53 93 1.0 2.0 0.00 0.00 0.00 79
20260507185205 53 94 1.0 2.0 0.00 0.00 0.00 79
20260507184206 53 93 1.0 4.0 0.00 0.00 0.00 78
20260507183205 53 93 1.0 4.0 0.00 0.00 0.00 78
20260507182205 53 94 1.0 3.0 0.00 0.00 0.00 77
20260507181205 54 90 2.0 4.0 0.00 0.00 0.00 77
20260507180417 54 92 1.0 3.0 0.00 0.00 0.00 78
20260507175206 53 100 1.0 4.0 0.00 0.00 0.00 78
20260507174205 53 97 1.0 4.0 0.00 0.00 0.00 78
20260507173415 53 92 1.0 3.0 0.00 0.00 0.00 79
20260507172205 54 75 1.0 3.0 0.00 0.00 0.00 80
20260507171205 54 37 1.0 2.0 0.00 0.00 0.00 85
20260507170205 54 46 0.0 1.0 0.00 0.00 0.00 84
20260507165205 54 71 1.0 3.0 0.00 0.00 0.00 83
20260507164205 54 67 1.0 2.0 0.00 0.00 0.00 84
20260507163205 54 48 1.0 3.0 0.00 0.00 0.00 84
20260507162205 53 34 1.0 2.0 0.00 0.00 0.00 83
20260507161205 54 45 0.0 2.0 0.00 0.00 0.00 82
20260507160206 54 69 1.0 2.0 0.00 0.00 0.00 82
20260507155207 54 54 1.0 2.0 0.00 0.00 0.00 81
20260507154205 54 27 1.0 2.0 0.00 0.00 0.00 82
20260507153205 54 360 0.0 2.0 0.00 0.00 0.00 80
20260507152205 55 2 1.0 2.0 0.00 0.00 0.00 77
20260507151205 55 121 0.0 0.0 0.00 0.00 0.00 75
20260507150205 54 135 1.0 3.0 0.00 0.00 0.00 74
20260507145205 54 140 1.0 4.0 0.00 0.00 0.00 74
20260507144205 55 114 1.0 4.0 0.00 0.00 0.00 73
20260507143205 55 105 1.0 8.0 0.00 0.00 0.00 73
20260507142204 56 107 1.0 8.0 0.00 0.00 0.00 71
20260507141205 56 139 1.0 5.0 0.00 0.00 0.00 68
20260507140414 56 184 1.0 4.0 0.00 0.00 0.00 67
20260507135205 56 191 0.0 4.0 0.00 0.00 0.00 68
20260507134204 56 195 1.0 3.0 0.00 0.00 0.00 67
20260507133205 57 188 2.0 5.0 0.00 0.00 0.00 63
20260507132205 57 192 3.0 7.0 0.00 0.00 0.00 62
20260507131204 58 188 3.0 9.0 0.00 0.00 0.00 61
20260507130204 58 181 3.0 6.0 0.00 0.00 0.00 60
20260507125204 58 175 3.0 9.0 0.00 0.00 0.00 59
20260507124204 58 172 3.0 8.0 0.00 0.00 0.00 58
20260507123418 58 177 3.0 7.0 0.00 0.00 0.00 60
20260507122205 58 188 2.0 5.0 0.00 0.00 0.00 58
20260507121415 58 179 2.0 5.0 0.00 0.00 0.00 58
20260507120416 58 172 3.0 7.0 0.00 0.00 0.00 58
20260507115204 58 172 2.0 7.0 0.00 0.00 0.00 61
20260507114205 57 127 2.0 6.0 0.00 0.00 0.00 63
20260507113204 57 105 2.0 5.0 0.00 0.00 0.00 64
20260507112204 57 123 3.0 7.0 0.00 0.00 0.00 65
20260507111415 57 117 2.0 5.0 0.00 0.00 0.00 65
20260507110417 58 111 3.0 7.0 0.00 0.00 0.00 66
20260507105204 58 132 3.0 8.0 0.00 0.00 0.00 66
20260507104205 59 145 3.0 6.0 0.00 0.00 0.00 67
20260507103414 58 136 2.0 8.0 0.00 0.00 0.00 69
20260507102415 58 120 3.0 8.0 0.00 0.00 0.00 69
20260507101416 57 113 3.0 7.0 0.00 0.00 0.00 70
20260507100205 56 108 3.0 8.0 0.00 0.00 0.00 71
20260507095205 55 105 2.0 6.0 0.00 0.00 0.00 73
20260507094204 54 109 2.0 4.0 0.00 0.00 0.00 75
20260507093204 54 101 2.0 6.0 0.00 0.00 0.00 74
20260507092204 53 84 2.0 7.0 0.00 0.00 0.00 76
20260507091204 53 98 3.0 6.0 0.00 0.00 0.00 77
20260507090205 53 127 2.0 6.0 0.00 0.00 0.00 78
20260507085204 52 111 1.0 4.0 0.00 0.00 0.00 79
20260507084414 51 95 1.0 4.0 0.00 0.00 0.00 81
20260507083204 50 106 1.0 4.0 0.00 0.00 0.00 82
20260507082416 49 108 1.0 3.0 0.00 0.00 0.00 83
20260507081204 48 92 1.0 4.0 0.00 0.00 0.00 84
20260507080204 48 86 1.0 4.0 0.00 0.00 0.00 85
20260507075204 47 98 1.0 3.0 0.00 0.00 0.00 86
20260507074205 47 91 1.0 3.0 0.00 0.00 0.00 87
20260507073205 46 88 2.0 5.0 0.00 0.00 0.00 87
20260507072204 46 88 2.0 5.0 0.00 0.00 0.00 87
20260507071205 46 80 1.0 6.0 0.00 0.00 0.00 88
20260507070204 46 79 1.0 3.0 0.00 0.00 0.00 88
20260507065204 45 103 0.0 3.0 0.00 0.00 0.00 88
20260507064205 45 95 0.0 2.0 0.00 0.00 0.00 89
20260507063417 45 96 1.0 3.0 0.00 0.00 0.00 89
20260507062204 45 93 0.0 3.0 0.00 0.00 0.00 89
20260507061204 45 80 1.0 4.0 0.00 0.00 0.00 89
20260507060204 44 81 1.0 3.0 0.00 0.00 0.00 89
20260507055415 44 83 1.0 3.0 0.00 0.00 0.00 90
20260507054416 44 77 1.0 4.0 0.00 0.00 0.00 90
20260507053204 44 81 1.0 4.0 0.00 0.00 0.00 90
20260507052204 44 81 0.0 2.0 0.00 0.00 0.00 90
20260507051414 44 79 2.0 5.0 0.00 0.00 0.00 90
20260507050415 44 81 1.0 3.0 0.00 0.00 0.00 90
20260507045204 44 79 2.0 4.0 0.00 0.00 0.00 90
20260507044204 44 77 2.0 4.0 0.00 0.00 0.00 90
20260507043203 44 78 1.0 4.0 0.00 0.00 0.00 90
20260507042204 44 86 1.0 4.0 0.00 0.00 0.00 89
20260507041203 44 83 1.0 3.0 0.00 0.00 0.00 89
20260507040203 44 76 2.0 5.0 0.00 0.00 0.00 89
20260507035203 44 75 2.0 5.0 0.00 0.00 0.00 89
20260507034203 44 76 2.0 5.0 0.00 0.00 0.00 89
20260507033203 44 78 2.0 4.0 0.00 0.00 0.00 88
20260507032204 44 79 2.0 7.0 0.00 0.00 0.00 88
20260507031415 44 79 2.0 4.0 0.00 0.00 0.00 88
20260507030416 44 79 2.0 5.0 0.00 0.00 0.00 87
20260507025204 44 80 3.0 7.0 0.00 0.00 0.00 87
20260507024203 45 81 2.0 6.0 0.00 0.00 0.00 86
20260507023414 45 79 2.0 6.0 0.00 0.00 0.00 86
20260507022203 45 79 1.0 4.0 0.00 0.00 0.00 86
20260507021203 45 83 2.0 5.0 0.00 0.00 0.00 85
20260507020203 45 83 1.0 4.0 0.00 0.00 0.00 85
20260507015204 45 80 2.0 6.0 0.00 0.00 0.00 85
20260507014204 45 78 3.0 7.0 0.00 0.00 0.00 85
20260507013203 45 81 2.0 6.0 0.00 0.00 0.00 85
20260507012204 45 86 1.0 5.0 0.00 0.00 0.00 85
20260507011417 46 81 2.0 7.0 0.00 0.00 0.00 85
20260507010417 46 81 3.0 7.0 0.00 0.00 0.00 85
20260507005203 46 83 3.0 9.0 0.00 0.00 0.00 85